When you browse on this site, cookies collect data to enhance your experience and personalize the content and advertising you see.
Visit our Privacy Policy to learn more. By continuing to use the site, you agree to this use of cookies and data.
  • In Hungary
  • List of Countries
  • For 7 days
  • Water Temperature
  • Satellite Maps
  • Weather Map
  • News
  • Weather Widgets
  • user-avatar
    Login

    Hourly Weather Urzhumka

    Today, 21 November, Wednesday

    Time Temperature Precipitation Wind Pressure Humidity
    00:00 -6°C° 0 mm 5 mps 755 mmHg 76%
    01:00 -6°C° 0 mm 5 mps 755 mmHg 75%
    02:00 -6°C° 0 mm 5 mps 754 mmHg 74%
    03:00 -6°C° 0 mm 5 mps 754 mmHg 76%
    04:00 -6°C° 0 mm 5 mps 753 mmHg 77%
    05:00 -6°C° 0 mm 5 mps 753 mmHg 78%
    06:00 -6°C° 0 mm 5 mps 752 mmHg 80%
    07:00 -5°C° 0.1 mm 5 mps 752 mmHg 81%
    08:00 -5°C° 0.1 mm 5 mps 752 mmHg 81%
    09:00 -4°C° 0 mm 5 mps 751 mmHg 82%
    10:00 -4°C° 0.1 mm 6 mps 751 mmHg 81%
    11:00 -3°C° 0.1 mm 6 mps 751 mmHg 79%
    12:00 -3°C° 0.1 mm 6 mps 751 mmHg 78%
    13:00 -3°C° 0.1 mm 6 mps 751 mmHg 76%
    14:00 -3°C° 0.1 mm 6 mps 751 mmHg 74%
    15:00 -4°C° 0.1 mm 5 mps 752 mmHg 72%
    16:00 -4°C° 0 mm 5 mps 752 mmHg 74%
    17:00 -5°C° 0 mm 5 mps 752 mmHg 75%
    18:00 -5°C° 0 mm 4 mps 753 mmHg 77%
    19:00 -7°C° 0 mm 4 mps 753 mmHg 78%
    20:00 -7°C° 0 mm 4 mps 753 mmHg 79%
    21:00 -7°C° 0 mm 4 mps 753 mmHg 80%
    22:00 -8°C° 0 mm 4 mps 752 mmHg 81%
    23:00 -8°C° 0 mm 4 mps 752 mmHg 82%

    Tomorrow, 22 November, Thursday

    Time Temperature Precipitation Wind Pressure Humidity
    00:00 -8°C° 0 mm 4 mps 752 mmHg 82%
    01:00 -8°C° 0 mm 4 mps 752 mmHg 84%
    02:00 -8°C° 0 mm 4 mps 751 mmHg 86%
    03:00 -8°C° 0 mm 4 mps 751 mmHg 87%
    04:00 -8°C° 0 mm 4 mps 750 mmHg 87%
    05:00 -8°C° 0 mm 4 mps 750 mmHg 87%
    06:00 -7°C° 0 mm 4 mps 749 mmHg 87%
    07:00 -7°C° 0.1 mm 5 mps 749 mmHg 85%
    08:00 -6°C° 0.1 mm 5 mps 748 mmHg 83%
    09:00 -6°C° 0.1 mm 6 mps 747 mmHg 81%
    10:00 -6°C° 0.1 mm 6 mps 747 mmHg 80%
    11:00 -7°C° 0.1 mm 7 mps 746 mmHg 79%
    12:00 -6°C° 0.1 mm 7 mps 745 mmHg 78%
    13:00 -6°C° 0.3 mm 7 mps 744 mmHg 81%
    14:00 -7°C° 0.3 mm 7 mps 744 mmHg 83%
    15:00 -6°C° 0.3 mm 6 mps 743 mmHg 85%
    16:00 -5°C° 0.3 mm 6 mps 742 mmHg 86%
    17:00 -5°C° 0.3 mm 6 mps 741 mmHg 87%
    18:00 -5°C° 0.3 mm 6 mps 740 mmHg 88%
    19:00 -6°C° 0.5 mm 7 mps 740 mmHg 85%
    20:00 -6°C° 0.5 mm 7 mps 740 mmHg 81%
    21:00 -6°C° 0.5 mm 8 mps 740 mmHg 77%
    22:00 -7°C° 0.1 mm 7 mps 740 mmHg 77%
    23:00 -7°C° 0.1 mm 7 mps 741 mmHg 78%

    Day after tomorrow, 23 November, Friday

    Time Temperature Precipitation Wind Pressure Humidity
    00:00 -8°C° 0.1 mm 6 mps 741 mmHg 78%
    01:00 -8°C° 0.1 mm 6 mps 742 mmHg 77%
    02:00 -8°C° 0.1 mm 6 mps 743 mmHg 76%
    03:00 -9°C° 0.1 mm 7 mps 744 mmHg 76%
    04:00 -9°C° 0.2 mm 7 mps 745 mmHg 78%
    05:00 -9°C° 0.2 mm 7 mps 746 mmHg 80%
    06:00 -11°C° 0.2 mm 7 mps 747 mmHg 82%
    07:00 -11°C° 0.1 mm 7 mps 748 mmHg 80%
    08:00 -11°C° 0.1 mm 7 mps 749 mmHg 78%
    09:00 -11°C° 0.1 mm 7 mps 750 mmHg 77%
    10:00 -11°C° 0 mm 7 mps 751 mmHg 76%
    11:00 -11°C° 0 mm 7 mps 751 mmHg 75%
    12:00 -9°C° 0 mm 7 mps 752 mmHg 73%
    13:00 -11°C° 0 mm 7 mps 753 mmHg 74%
    14:00 -10°C° 0 mm 6 mps 754 mmHg 74%
    15:00 -10°C° 0 mm 6 mps 754 mmHg 74%
    16:00 -11°C° 0 mm 5 mps 755 mmHg 76%
    17:00 -11°C° 0 mm 5 mps 755 mmHg 78%
    18:00 -10°C° 0 mm 4 mps 756 mmHg 81%
    19:00 -11°C° 0 mm 4 mps 756 mmHg 82%
    20:00 -11°C° 0 mm 4 mps 756 mmHg 83%
    21:00 -11°C° 0 mm 4 mps 756 mmHg 84%
    22:00 -11°C° 0 mm 4 mps 756 mmHg 84%
    23:00 -11°C° 0 mm 4 mps 756 mmHg 84%

    24 November, Saturday

    Time Temperature Precipitation Wind Pressure Humidity
    00:00 -11°C° 0 mm 4 mps 756 mmHg 84%
    01:00 -11°C° 0 mm 4 mps 756 mmHg 85%
    02:00 -11°C° 0 mm 4 mps 756 mmHg 85%
    03:00 -10°C° 0 mm 4 mps 756 mmHg 86%
    04:00 -11°C° 0 mm 5 mps 755 mmHg 87%
    05:00 -11°C° 0 mm 5 mps 755 mmHg 88%
    06:00 -11°C° 0 mm 5 mps 755 mmHg 89%
    07:00 -10°C° 0 mm 5 mps 754 mmHg 88%
    08:00 -10°C° 0 mm 6 mps 754 mmHg 88%
    09:00 -10°C° 0 mm 6 mps 754 mmHg 87%
    10:00 -9°C° 0.1 mm 6 mps 753 mmHg 86%
    11:00 -8°C° 0.1 mm 6 mps 753 mmHg 84%
    12:00 -7°C° 0.1 mm 7 mps 752 mmHg 82%
    13:00 -6°C° 0.1 mm 6 mps 752 mmHg 82%
    14:00 -6°C° 0.1 mm 6 mps 752 mmHg 82%
    15:00 -5°C° 0.1 mm 6 mps 751 mmHg 82%
    16:00 -5°C° 0 mm 6 mps 751 mmHg 82%
    17:00 -5°C° 0 mm 6 mps 751 mmHg 82%
    18:00 -5°C° 0 mm 6 mps 751 mmHg 83%
    19:00 -5°C° 0 mm 6 mps 751 mmHg 83%
    20:00 -5°C° 0 mm 6 mps 751 mmHg 84%
    21:00 -5°C° 0 mm 6 mps 751 mmHg 84%
    22:00 -5°C° 0 mm 6 mps 751 mmHg 84%
    23:00 -5°C° 0 mm 6 mps 751 mmHg 84%

    25 November, Sunday

    Time Temperature Precipitation Wind Pressure Humidity
    00:00 -5°C° 0 mm 6 mps 750 mmHg 84%
    01:00 -5°C° 0.1 mm 6 mps 750 mmHg 84%
    02:00 -5°C° 0.1 mm 6 mps 750 mmHg 85%
    03:00 -5°C° 0.1 mm 6 mps 750 mmHg 85%
    04:00 -5°C° 0.1 mm 6 mps 751 mmHg 85%
    05:00 -5°C° 0.1 mm 6 mps 751 mmHg 86%
    06:00 -5°C° 0.1 mm 5 mps 751 mmHg 86%
    07:00 -5°C° 0 mm 5 mps 752 mmHg 87%
    08:00 -6°C° 0 mm 5 mps 752 mmHg 88%
    09:00 -5°C° 0 mm 4 mps 753 mmHg 90%
    10:00 -5°C° 0 mm 4 mps 753 mmHg 89%
    11:00 -4°C° 0 mm 4 mps 754 mmHg 88%
    12:00 -4°C° 0 mm 4 mps 754 mmHg 87%
    13:00 -4°C° 0 mm 3 mps 754 mmHg 89%
    14:00 -5°C° 0 mm 3 mps 754 mmHg 90%
    15:00 -4°C° 0 mm 2 mps 754 mmHg 91%
    16:00 -5°C° 0 mm 2 mps 754 mmHg 92%
    17:00 -5°C° 0 mm 2 mps 754 mmHg 93%
    18:00 -6°C° 0 mm 2 mps 754 mmHg 94%
    19:00 -6°C° 0 mm 2 mps 754 mmHg 94%
    20:00 -6°C° 0 mm 2 mps 754 mmHg 94%
    21:00 -7°C° 0 mm 2 mps 754 mmHg 95%
    22:00 -7°C° 0 mm 2 mps 754 mmHg 95%
    23:00 -7°C° 0 mm 2 mps 753 mmHg 95%

    26 November, Monday

    Time Temperature Precipitation Wind Pressure Humidity
    00:00 -6°C° 0 mm 1 mps 753 mmHg 95%
    01:00 -4°C° 0 mm 1 mps 753 mmHg 95%
    02:00 -4°C° 0 mm 1 mps 752 mmHg 95%
    03:00 -4°C° 0 mm 1 mps 752 mmHg 95%
    04:00 -4°C° 0.3 mm 1 mps 751 mmHg 96%
    05:00 -5°C° 0.3 mm 2 mps 750 mmHg 96%
    06:00 -5°C° 0.3 mm 2 mps 750 mmHg 96%
    07:00 -5°C° 0.5 mm 2 mps 749 mmHg 96%
    08:00 -5°C° 0.5 mm 2 mps 749 mmHg 96%
    09:00 -5°C° 0.5 mm 2 mps 748 mmHg 96%
    10:00 -4°C° 0.4 mm 2 mps 748 mmHg 95%
    11:00 -4°C° 0.4 mm 2 mps 747 mmHg 95%
    12:00 -2°C° 0.4 mm 1 mps 747 mmHg 94%
    13:00 -2°C° 0.3 mm 1 mps 746 mmHg 95%
    14:00 -2°C° 0.3 mm 1 mps 746 mmHg 95%
    15:00 -2°C° 0.3 mm 1 mps 745 mmHg 95%
    16:00 -2°C° 0.2 mm 1 mps 745 mmHg 96%
    17:00 -4°C° 0.2 mm 2 mps 745 mmHg 96%
    18:00 -5°C° 0.2 mm 2 mps 745 mmHg 96%
    19:00 -5°C° 0.1 mm 2 mps 745 mmHg 95%
    20:00 -6°C° 0.1 mm 3 mps 745 mmHg 95%
    21:00 -6°C° 0.1 mm 3 mps 745 mmHg 94%
    22:00 -7°C° 0.2 mm 3 mps 745 mmHg 94%
    23:00 -8°C° 0.2 mm 4 mps 745 mmHg 93%
    Show more